Location: Tokyo
(35.7000°N, 139.7667°E)
Time: 03:50:05
(UTC+09:00)

CZ-4C R/B - Pass Details

Date: 12 October 2012
Orbit: 652 x 1350 km, 63.4° (Epoch: 13 November)

Event Time Altitude Azimuth Distance (km) Brightness Sun altitude
Rises 19:19:52 0° 335° (NNW) 3,779 6.1 -27.2°
Reaches altitude 10° 19:22:33 10° 343° (NNW) 2,927 5.3 -27.7°
Enters shadow 19:28:18 39° 36° (NE) 1,710 3.5 -28.9°
